EWG9JL EDDL-LGKR

Flight info

Callsign EWG9JL
Flight time N/A
Altitude 37000
Route DODEN1T DODEN Y853 BOMBI DCT DETEV DCT DINKU/N0459F330 M867 XERUM DCT BAVAX DCT RADIZ/N0456F370 DCT ALIVO DCT UNIPA DCT VAKSU DCT RODON DCT LIMJA N732 PITAS
Aircraft A320/M-SDE3FGHIRWY/LB1

Departure

Time 2026-05-07 09:04
Airport Düsseldorf Airport (EDDL)

Arrival

Time N/A
Airport Corfu Ioannis Kapodistrias International Airport (LGKR)
Time Latitude Longitude Altitude Speed Heading
2026-05-07 08:48 51.28035 6.76223 129 ft 0 kts 163°
2026-05-07 08:52 51.28051 6.76215 124 ft 4 kts 161°
2026-05-07 08:52 51.28076 6.76199 126 ft 4 kts 152°
2026-05-07 08:52 51.28097 6.76176 124 ft 4 kts 122°
2026-05-07 08:53 51.28101 6.76151 125 ft 1 kts 53°
2026-05-07 08:57 51.28105 6.76160 129 ft 3 kts 52°
2026-05-07 08:57 51.28119 6.76188 126 ft 3 kts 52°
2026-05-07 08:58 51.28134 6.76219 123 ft 4 kts 52°
2026-05-07 08:58 51.28153 6.76254 125 ft 4 kts 37°
2026-05-07 08:58 51.28178 6.76260 125 ft 2 kts 357°
2026-05-07 08:58 51.28188 6.76253 125 ft 4 kts 329°
2026-05-07 08:59 51.28235 6.76245 125 ft 8 kts 31°
2026-05-07 08:59 51.28277 6.76329 124 ft 10 kts 53°
2026-05-07 08:59 51.28318 6.76415 124 ft 10 kts 53°
2026-05-07 08:59 51.28357 6.76500 121 ft 9 kts 53°
2026-05-07 09:00 51.28393 6.76575 123 ft 8 kts 53°
2026-05-07 09:00 51.28438 6.76669 126 ft 11 kts 53°
2026-05-07 09:00 51.28480 6.76757 124 ft 9 kts 53°
2026-05-07 09:00 51.28535 6.76872 125 ft 17 kts 53°
2026-05-07 09:01 51.28607 6.77025 127 ft 18 kts 52°
2026-05-07 09:01 51.28676 6.77181 129 ft 18 kts 55°
2026-05-07 09:01 51.28758 6.77340 124 ft 20 kts 54°
2026-05-07 09:01 51.28845 6.77521 129 ft 21 kts 53°
2026-05-07 09:02 51.28938 6.77717 127 ft 23 kts 52°
2026-05-07 09:02 51.29037 6.77927 129 ft 24 kts 53°
2026-05-07 09:02 51.29141 6.78145 134 ft 24 kts 51°
2026-05-07 09:02 51.29216 6.78218 137 ft 11 kts 355°
2026-05-07 09:03 51.29286 6.78157 139 ft 11 kts 321°
2026-05-07 09:03 51.29333 6.78074 140 ft 10 kts 269°
2026-05-07 09:03 51.29252 6.77909 135 ft 46 kts 232°
2026-05-07 09:03 51.28902 6.77171 129 ft 116 kts 232°
2026-05-07 09:04 51.28307 6.75903 168 ft 164 kts 238°
2026-05-07 09:04 51.27676 6.74444 957 ft 156 kts 238°
2026-05-07 09:04 51.27025 6.73069 1722 ft 155 kts 236°
2026-05-07 09:04 51.26348 6.71557 2075 ft 178 kts 238°
2026-05-07 09:05 51.25577 6.69869 2442 ft 200 kts 235°
2026-05-07 09:05 51.24682 6.67973 2816 ft 226 kts 235°
2026-05-07 09:05 51.23680 6.65866 3284 ft 250 kts 234°
2026-05-07 09:05 51.22322 6.63982 3898 ft 269 kts 203°
2026-05-07 09:06 51.20490 6.63564 4818 ft 275 kts 175°
2026-05-07 09:06 51.18577 6.63842 5865 ft 277 kts 174°
2026-05-07 09:06 51.16655 6.64226 6874 ft 280 kts 166°
2026-05-07 09:06 51.14897 6.65540 7780 ft 283 kts 140°
2026-05-07 09:07 51.13639 6.67942 8642 ft 286 kts 115°
2026-05-07 09:07 51.13131 6.70983 9566 ft 287 kts 91°
2026-05-07 09:07 51.13214 6.74178 10362 ft 295 kts 86°
2026-05-07 09:07 51.13348 6.77582 10650 ft 319 kts 85°
2026-05-07 09:08 51.13497 6.81238 10895 ft 343 kts 85°
2026-05-07 09:08 51.13653 6.85140 11261 ft 360 kts 85°
2026-05-07 09:08 51.13807 6.89164 11900 ft 367 kts 86°
2026-05-07 09:08 51.13956 6.93244 12628 ft 372 kts 86°
2026-05-07 09:09 51.14102 6.97386 13356 ft 377 kts 86°
2026-05-07 09:09 51.14248 7.01577 14040 ft 382 kts 86°
2026-05-07 09:09 51.14396 7.05811 14686 ft 385 kts 86°
2026-05-07 09:09 51.14547 7.10100 15341 ft 389 kts 86°
2026-05-07 09:10 51.14698 7.14423 15980 ft 392 kts 86°
2026-05-07 09:10 51.14847 7.18775 16646 ft 395 kts 86°
2026-05-07 09:10 51.14946 7.21669 17055 ft 397 kts 85°
2026-05-07 09:10 51.15096 7.26089 17671 ft 400 kts 86°
2026-05-07 09:11 51.15245 7.30529 18292 ft 403 kts 86°
2026-05-07 09:11 51.15388 7.35000 18802 ft 407 kts 88°
2026-05-07 09:11 51.15163 7.39511 19312 ft 411 kts 101°
2026-05-07 09:11 51.14327 7.43888 19814 ft 415 kts 112°
2026-05-07 09:12 51.12964 7.47945 20313 ft 419 kts 123°
2026-05-07 09:12 51.11139 7.51564 20782 ft 422 kts 134°
2026-05-07 09:12 51.09018 7.54823 21339 ft 424 kts 136°
2026-05-07 09:12 51.06879 7.58089 21806 ft 428 kts 136°
2026-05-07 09:13 51.04707 7.61413 22334 ft 430 kts 136°
2026-05-07 09:13 51.02546 7.64712 22875 ft 431 kts 136°
2026-05-07 09:13 51.00399 7.67979 23342 ft 434 kts 136°
2026-05-07 09:13 50.98205 7.71309 23707 ft 438 kts 136°
2026-05-07 09:14 50.95816 7.74430 24102 ft 440 kts 145°
2026-05-07 09:14 50.93265 7.77000 24498 ft 442 kts 148°
2026-05-07 09:14 50.90642 7.79573 24842 ft 445 kts 148°
2026-05-07 09:14 50.87986 7.82180 25010 ft 453 kts 148°
2026-05-07 09:15 50.85282 7.84839 25114 ft 460 kts 148°
2026-05-07 09:15 50.82548 7.87527 25251 ft 467 kts 148°
2026-05-07 09:15 50.79763 7.90266 25372 ft 473 kts 148°
2026-05-07 09:15 50.76952 7.93029 25570 ft 477 kts 148°
2026-05-07 09:16 50.74125 7.95799 25867 ft 478 kts 148°
2026-05-07 09:16 50.71293 7.98566 26196 ft 479 kts 148°
2026-05-07 09:16 50.68454 8.01331 26577 ft 479 kts 148°
2026-05-07 09:16 50.65623 8.04085 26982 ft 478 kts 148°
2026-05-07 09:17 50.62799 8.06830 27403 ft 476 kts 148°
2026-05-07 09:17 50.60028 8.09672 27834 ft 475 kts 143°
2026-05-07 09:17 50.57466 8.12957 28216 ft 475 kts 140°
2026-05-07 09:17 50.54943 8.16282 28616 ft 474 kts 140°
2026-05-07 09:18 50.52414 8.19603 29062 ft 472 kts 140°
2026-05-07 09:18 50.49894 8.22898 29494 ft 471 kts 140°
2026-05-07 09:18 50.47380 8.26179 30003 ft 468 kts 140°
2026-05-07 09:18 50.44875 8.29442 30356 ft 468 kts 140°
2026-05-07 09:19 50.42375 8.32695 30694 ft 467 kts 140°
2026-05-07 09:19 50.39874 8.35947 31068 ft 466 kts 140°
2026-05-07 09:19 50.37384 8.39184 31415 ft 465 kts 140°
2026-05-07 09:19 50.34893 8.42418 31752 ft 465 kts 140°
2026-05-07 09:20 50.32406 8.45642 32072 ft 465 kts 141°
2026-05-07 09:20 50.29906 8.48873 32352 ft 466 kts 141°
2026-05-07 09:20 50.27408 8.52098 32695 ft 465 kts 141°
2026-05-07 09:20 50.24910 8.55326 33047 ft 465 kts 141°
2026-05-07 09:21 50.22422 8.58544 33371 ft 465 kts 141°
2026-05-07 09:21 50.19937 8.61755 33703 ft 464 kts 141°
2026-05-07 09:21 50.17445 8.64969 34030 ft 464 kts 141°
2026-05-07 09:21 50.14951 8.68172 34341 ft 463 kts 141°
2026-05-07 09:22 50.12487 8.71324 34640 ft 462 kts 142°
2026-05-07 09:22 50.09998 8.74502 34925 ft 462 kts 142°
2026-05-07 09:22 50.07585 8.77805 35182 ft 463 kts 135°
2026-05-07 09:22 50.05501 8.81620 35433 ft 464 kts 126°
2026-05-07 09:23 50.03815 8.85932 35675 ft 465 kts 117°
2026-05-07 09:23 50.02391 8.90555 35903 ft 466 kts 116°
2026-05-07 09:23 50.01014 8.95028 36123 ft 466 kts 117°
2026-05-07 09:23 49.99608 8.99566 36359 ft 466 kts 117°
2026-05-07 09:24 49.98194 9.04097 36579 ft 466 kts 117°
2026-05-07 09:24 49.96776 9.08624 36798 ft 466 kts 117°
2026-05-07 09:24 49.95352 9.13154 36968 ft 467 kts 117°
2026-05-07 09:24 49.93925 9.17688 37010 ft 468 kts 117°
2026-05-07 09:25 49.91074 9.26729 37008 ft 469 kts 117°
2026-05-07 09:25 49.88204 9.35817 37002 ft 469 kts 117°
2026-05-07 09:26 49.85329 9.44891 37004 ft 469 kts 117°
2026-05-07 09:26 49.82181 9.53704 36999 ft 466 kts 128°
2026-05-07 09:27 49.77734 9.60930 36991 ft 464 kts 139°
2026-05-07 09:28 49.70669 9.71159 36993 ft 464 kts 139°
2026-05-07 09:28 49.65922 9.78027 36997 ft 465 kts 139°
2026-05-07 09:29 49.61212 9.84807 37013 ft 465 kts 139°
2026-05-07 09:29 49.56475 9.91608 37012 ft 465 kts 139°
2026-05-07 09:30 49.51741 9.98402 36996 ft 465 kts 139°
2026-05-07 09:30 49.47013 10.05165 37004 ft 466 kts 139°
2026-05-07 09:31 49.42245 10.11939 37011 ft 466 kts 139°
2026-05-07 09:31 49.37477 10.18695 37012 ft 466 kts 139°
2026-05-07 09:32 49.32737 10.25405 37028 ft 466 kts 139°
2026-05-07 09:32 49.27963 10.32162 37013 ft 466 kts 140°
2026-05-07 09:33 49.23089 10.38677 37032 ft 463 kts 148°
2026-05-07 09:33 49.17606 10.43769 37048 ft 461 kts 152°
2026-05-07 09:34 49.12088 10.48798 37056 ft 461 kts 152°
2026-05-07 09:34 49.06619 10.53781 37054 ft 461 kts 152°
2026-05-07 09:35 49.01108 10.58786 37043 ft 461 kts 152°
2026-05-07 09:35 48.95591 10.63770 37045 ft 461 kts 152°
2026-05-07 09:36 48.90077 10.68733 37051 ft 460 kts 152°
2026-05-07 09:36 48.84563 10.73677 37051 ft 461 kts 152°
2026-05-07 09:37 48.79446 10.79583 37047 ft 466 kts 136°
2026-05-07 09:37 48.75107 10.86902 37035 ft 467 kts 135°
2026-05-07 09:38 48.70761 10.94195 37024 ft 466 kts 135°
2026-05-07 09:38 48.66428 11.01409 37027 ft 465 kts 135°
2026-05-07 09:39 48.62061 11.08662 37033 ft 465 kts 135°
2026-05-07 09:39 48.57709 11.15896 37033 ft 465 kts 135°
2026-05-07 09:40 48.53348 11.23125 37031 ft 465 kts 135°
2026-05-07 09:40 48.48981 11.30350 37001 ft 465 kts 136°
2026-05-07 09:41 48.44621 11.37546 37019 ft 465 kts 136°
2026-05-07 09:41 48.40256 11.44722 37028 ft 464 kts 136°
2026-05-07 09:42 48.35889 11.51869 37042 ft 464 kts 136°
2026-05-07 09:42 48.31512 11.59026 37033 ft 464 kts 136°
2026-05-07 09:43 48.27165 11.66109 37029 ft 463 kts 136°
2026-05-07 09:43 48.22627 11.72955 37040 ft 461 kts 141°
2026-05-07 09:44 48.17858 11.79364 37042 ft 459 kts 143°
2026-05-07 09:44 48.13065 11.85699 37037 ft 459 kts 142°
2026-05-07 09:45 48.08331 11.92121 37026 ft 459 kts 141°
2026-05-07 09:45 48.03635 11.98579 37002 ft 459 kts 142°
2026-05-07 09:46 47.98923 12.05032 37004 ft 458 kts 142°
2026-05-07 09:46 47.94203 12.11437 37024 ft 458 kts 142°
2026-05-07 09:47 47.89515 12.17784 37028 ft 458 kts 142°
2026-05-07 09:47 47.84797 12.24146 37030 ft 457 kts 142°
2026-05-07 09:48 47.80080 12.30490 37036 ft 457 kts 142°
2026-05-07 09:48 47.75356 12.36835 37029 ft 457 kts 142°
2026-05-07 09:49 47.71432 12.42107 37028 ft 457 kts 142°
2026-05-07 09:49 47.66706 12.48433 37026 ft 457 kts 142°
2026-05-07 09:50 47.61930 12.54635 37033 ft 454 kts 148°
2026-05-07 09:50 47.56853 12.60201 37037 ft 454 kts 148°
2026-05-07 09:51 47.51782 12.65750 37004 ft 453 kts 148°
2026-05-07 09:51 47.46704 12.71303 37016 ft 453 kts 148°
2026-05-07 09:52 47.41660 12.76795 37016 ft 453 kts 148°
2026-05-07 09:52 47.36581 12.82309 37021 ft 453 kts 148°
2026-05-07 09:53 47.31493 12.87832 37010 ft 453 kts 148°
2026-05-07 09:53 47.26411 12.93335 36975 ft 453 kts 149°
2026-05-07 09:54 47.21320 12.98827 36974 ft 452 kts 149°
2026-05-07 09:54 47.16233 13.04297 36993 ft 453 kts 149°
2026-05-07 09:55 47.11147 13.09746 36998 ft 453 kts 149°
2026-05-07 09:55 47.06060 13.15189 36985 ft 452 kts 149°
2026-05-07 09:56 47.00975 13.20623 36972 ft 453 kts 149°
2026-05-07 09:56 46.95877 13.26067 36968 ft 452 kts 150°
2026-05-07 09:57 46.90796 13.31478 36996 ft 451 kts 149°
2026-05-07 09:57 46.85717 13.36858 37001 ft 451 kts 149°
2026-05-07 09:58 46.80671 13.42199 36980 ft 450 kts 150°
2026-05-07 09:58 46.75592 13.47557 36965 ft 450 kts 150°
2026-05-07 09:59 46.70498 13.52916 36958 ft 451 kts 150°
2026-05-07 09:59 46.65444 13.58240 36972 ft 450 kts 150°
2026-05-07 10:00 46.60332 13.63602 36980 ft 450 kts 150°
2026-05-07 10:00 46.55238 13.68926 36975 ft 450 kts 150°
2026-05-07 10:01 46.50174 13.74197 36983 ft 451 kts 150°
2026-05-07 10:01 46.45058 13.79517 36965 ft 451 kts 150°
2026-05-07 10:02 46.39955 13.84826 36988 ft 451 kts 150°
2026-05-07 10:02 46.34853 13.90114 36997 ft 451 kts 150°
2026-05-07 10:03 46.29750 13.95388 36981 ft 451 kts 150°
2026-05-07 10:03 46.24637 14.00660 36986 ft 451 kts 150°
2026-05-07 10:04 46.19525 14.05921 36986 ft 451 kts 150°
2026-05-07 10:04 46.14445 14.11135 36972 ft 451 kts 150°
2026-05-07 10:05 46.09334 14.16365 36982 ft 450 kts 150°
2026-05-07 10:05 46.04221 14.21579 36978 ft 451 kts 150°
2026-05-07 10:06 45.99081 14.26817 36989 ft 452 kts 150°
2026-05-07 10:06 45.93947 14.32042 36990 ft 452 kts 150°
2026-05-07 10:07 45.88802 14.37258 36991 ft 452 kts 150°
2026-05-07 10:07 45.83668 14.42464 37006 ft 450 kts 150°
2026-05-07 10:08 45.78545 14.47638 37009 ft 450 kts 151°
2026-05-07 10:08 45.73425 14.52796 37009 ft 449 kts 151°
2026-05-07 10:09 45.68337 14.57917 37015 ft 449 kts 151°
2026-05-07 10:09 45.63211 14.63063 36994 ft 450 kts 151°
2026-05-07 10:10 45.58076 14.68193 37001 ft 450 kts 152°
2026-05-07 10:10 45.52941 14.73319 37021 ft 451 kts 150°
2026-05-07 10:11 45.48062 14.79070 37032 ft 455 kts 146°
2026-05-07 10:11 45.43216 14.84913 37038 ft 455 kts 146°
2026-05-07 10:12 45.38380 14.90736 37017 ft 456 kts 146°
2026-05-07 10:12 45.33528 14.96551 37025 ft 456 kts 146°
2026-05-07 10:13 45.28692 15.02334 37028 ft 456 kts 146°
2026-05-07 10:13 45.23837 15.08129 37036 ft 456 kts 146°
2026-05-07 10:14 45.18971 15.13918 37039 ft 456 kts 147°
2026-05-07 10:14 45.14099 15.19704 37026 ft 456 kts 147°
2026-05-07 10:15 45.09228 15.25488 37030 ft 456 kts 147°
2026-05-07 10:15 45.04359 15.31247 37039 ft 456 kts 147°
2026-05-07 10:16 44.99484 15.36988 37045 ft 456 kts 147°
2026-05-07 10:16 44.94613 15.42728 37050 ft 456 kts 147°
2026-05-07 10:17 44.89756 15.48441 37026 ft 456 kts 146°
2026-05-07 10:17 44.84879 15.54164 37041 ft 456 kts 147°
2026-05-07 10:18 44.79984 15.59882 37042 ft 457 kts 147°
2026-05-07 10:18 44.75088 15.65586 37052 ft 457 kts 147°
2026-05-07 10:19 44.70189 15.71282 37018 ft 457 kts 146°
2026-05-07 10:19 44.65274 15.76988 37036 ft 458 kts 146°
2026-05-07 10:20 44.60361 15.82686 37045 ft 458 kts 146°
2026-05-07 10:20 44.55473 15.88349 37053 ft 458 kts 147°
2026-05-07 10:21 44.50554 15.94027 37060 ft 458 kts 147°
2026-05-07 10:21 44.45629 15.99694 37054 ft 458 kts 146°
2026-05-07 10:22 44.40691 16.05352 37050 ft 457 kts 146°
2026-05-07 10:22 44.35761 16.11002 37056 ft 457 kts 146°
2026-05-07 10:23 44.30841 16.16628 37063 ft 457 kts 146°
2026-05-07 10:23 44.25933 16.22225 37049 ft 458 kts 146°
2026-05-07 10:24 44.20994 16.27841 37068 ft 457 kts 146°
2026-05-07 10:24 44.16063 16.33427 37066 ft 457 kts 146°
2026-05-07 10:25 44.11129 16.39024 37072 ft 457 kts 146°
2026-05-07 10:25 44.06187 16.44619 37082 ft 458 kts 146°
2026-05-07 10:26 44.01260 16.50143 37075 ft 457 kts 146°
2026-05-07 10:26 43.96227 16.55497 37076 ft 455 kts 148°
2026-05-07 10:27 43.91157 16.60745 37089 ft 455 kts 148°
2026-05-07 10:27 43.86942 16.65130 37092 ft 455 kts 148°
2026-05-07 10:28 43.81895 16.70426 37097 ft 455 kts 147°
2026-05-07 10:28 43.76844 16.75734 37089 ft 455 kts 147°
2026-05-07 10:29 43.71796 16.81019 37078 ft 455 kts 147°
2026-05-07 10:29 43.66733 16.86300 37081 ft 456 kts 147°
2026-05-07 10:30 43.59128 16.94200 37094 ft 456 kts 148°
2026-05-07 10:30 43.54053 16.99467 37102 ft 457 kts 148°
2026-05-07 10:31 43.48591 17.05116 37091 ft 457 kts 147°
2026-05-07 10:31 43.38431 17.15608 37100 ft 456 kts 148°
2026-05-07 10:32 43.28255 17.26054 37096 ft 458 kts 148°
2026-05-07 10:32 43.18002 17.36508 37108 ft 459 kts 148°
2026-05-07 10:33 43.07771 17.46951 37118 ft 458 kts 147°
2026-05-07 10:33 42.97543 17.57326 37107 ft 458 kts 147°
2026-05-07 10:34 42.87309 17.67644 37099 ft 458 kts 148°
2026-05-07 10:34 42.77032 17.77986 37083 ft 458 kts 148°
2026-05-07 10:35 42.66769 17.88252 37107 ft 458 kts 148°
2026-05-07 10:35 42.56499 17.98511 37100 ft 458 kts 148°
2026-05-07 10:36 42.46194 18.08721 37106 ft 459 kts 148°
2026-05-07 10:36 42.35882 18.18929 37095 ft 460 kts 148°
2026-05-07 10:37 42.25529 18.29122 37096 ft 460 kts 148°
2026-05-07 10:37 42.15217 18.39219 37100 ft 461 kts 148°
2026-05-07 10:38 42.04836 18.49359 37100 ft 461 kts 148°
2026-05-07 10:38 41.94561 18.59691 37119 ft 462 kts 146°
2026-05-07 10:39 41.84449 18.70332 37097 ft 462 kts 146°
2026-05-07 10:39 41.74242 18.80851 37101 ft 463 kts 147°
2026-05-07 10:40 41.64553 18.90827 37096 ft 462 kts 147°
2026-05-07 10:40 41.59446 18.96069 37101 ft 463 kts 147°
2026-05-07 10:41 41.54334 19.01309 37095 ft 464 kts 147°
2026-05-07 10:41 41.49210 19.06542 37105 ft 464 kts 147°
2026-05-07 10:42 41.43760 19.10979 37098 ft 454 kts 162°
2026-05-07 10:42 41.37853 19.13903 37067 ft 453 kts 165°
2026-05-07 10:43 41.31922 19.16789 37084 ft 454 kts 165°
2026-05-07 10:43 41.25979 19.19692 37084 ft 455 kts 165°
2026-05-07 10:44 41.20037 19.22581 37085 ft 455 kts 165°
2026-05-07 10:44 41.14124 19.25457 37087 ft 455 kts 165°
2026-05-07 10:45 41.08173 19.28344 37088 ft 456 kts 165°
2026-05-07 10:45 41.02214 19.31233 37090 ft 456 kts 165°
2026-05-07 10:46 40.96258 19.34102 37091 ft 456 kts 165°
2026-05-07 10:46 40.90289 19.36966 37077 ft 456 kts 165°
2026-05-07 10:47 40.84312 19.39834 37082 ft 457 kts 165°
2026-05-07 10:47 40.78333 19.42713 36982 ft 458 kts 165°
2026-05-07 10:48 40.75340 19.44153 36712 ft 457 kts 165°
2026-05-07 10:48 40.72350 19.45587 36442 ft 457 kts 165°
2026-05-07 10:48 40.69359 19.47019 36168 ft 457 kts 165°
2026-05-07 10:48 40.66369 19.48448 35906 ft 457 kts 165°
2026-05-07 10:49 40.63383 19.49869 35670 ft 456 kts 165°
2026-05-07 10:49 40.60406 19.51288 35420 ft 455 kts 165°
2026-05-07 10:49 40.57433 19.52709 35181 ft 454 kts 165°
2026-05-07 10:49 40.54470 19.54129 34938 ft 453 kts 164°
2026-05-07 10:50 40.53847 19.54427 34882 ft 453 kts 164°
2026-05-07 10:50 40.52539 19.55052 34777 ft 453 kts 164°
2026-05-07 10:51 40.49579 19.56459 34527 ft 453 kts 164°
2026-05-07 10:51 40.46614 19.57862 34295 ft 453 kts 164°
2026-05-07 10:51 40.43643 19.59261 34055 ft 453 kts 164°
2026-05-07 10:51 40.40675 19.60657 33782 ft 453 kts 164°
2026-05-07 10:52 40.37715 19.62052 33509 ft 453 kts 164°
2026-05-07 10:52 40.34776 19.63435 33243 ft 454 kts 164°
2026-05-07 10:52 40.31809 19.64831 32979 ft 454 kts 164°
2026-05-07 10:52 40.28839 19.66230 32714 ft 455 kts 164°
2026-05-07 10:53 40.25849 19.67640 32328 ft 458 kts 164°
2026-05-07 10:53 40.22832 19.69061 31159 ft 464 kts 163°
2026-05-07 10:53 40.19778 19.70500 30137 ft 466 kts 163°
2026-05-07 10:53 40.16718 19.71943 28861 ft 469 kts 163°
2026-05-07 10:54 40.13646 19.73389 27592 ft 472 kts 163°
2026-05-07 10:54 40.10542 19.74849 26335 ft 475 kts 163°
2026-05-07 10:54 40.07419 19.76315 25094 ft 478 kts 163°
2026-05-07 10:54 40.04285 19.77784 23908 ft 479 kts 164°
2026-05-07 10:55 40.01158 19.79245 22879 ft 472 kts 164°
2026-05-07 10:55 39.98123 19.80666 21529 ft 456 kts 164°
2026-05-07 10:55 39.95216 19.82031 20778 ft 432 kts 165°
2026-05-07 10:55 39.92427 19.83338 19961 ft 424 kts 165°
2026-05-07 10:56 39.89651 19.84569 19147 ft 417 kts 170°
2026-05-07 10:56 39.86854 19.84851 18135 ft 395 kts 193°
2026-05-07 10:56 39.84400 19.83620 17661 ft 381 kts 218°
2026-05-07 10:56 39.82576 19.81186 17185 ft 375 kts 239°
2026-05-07 10:57 39.81693 19.78044 16465 ft 373 kts 260°
2026-05-07 10:57 39.81527 19.74681 15738 ft 372 kts 267°
2026-05-07 10:57 39.81483 19.71334 15004 ft 363 kts 265°
2026-05-07 10:57 39.81236 19.69196 14014 ft 361 kts 251°